Probability
0 0 0 0 0 0 0 1 2 10 31 55 70 71 61 49 37 25 14 7 3 1 0 0 0 0 0 0 0 0 0 0 0 0 0 0 0 0 0 0 0 0 0
0 0 0 0 0 0 0 0 1 5 19 41 60 66 60 51 41 31 20 12 7 3 1 0 0 0 0 0 0 0 0 0 0 0 0 0 0 0 0 0 0 0 0
0 0 0 0 0 0 0 0 0 1 6 21 40 50 51 47 42 37 29 19 11 6 3 1 0 0 0 0 0 0 0 0 0 0 0 0 0 0 0 0 0 0 0
0 0 0 0 0 0 0 0 0 0 1 8 20 33 42 44 40 38 33 22 14 9 4 1 0 0 0 0 0 0 0 0 0 0 0 0 0 0 0 0 0 0 0
0 0 0 0 0 0 0 0 0 0 0 3 8 19 31 34 29 27 26 21 15 10 5 2 1 0 0 0 0 0 0 0 0 0 0 0 0 0 0 0 0 0 0
0 0 0 0 0 0 0 0 0 0 0 0 2 7 14 16 13 12 16 18 15 11 6 3 1 0 0 0 0 0 0 0 0 0 0 0 0 0 0 0 0 0 0
0 0 0 0 0 0 0 0 0 0 0 0 1 2 4 5 6 7 10 14 14 11 7 4 1 0 0 0 0 0 0 0 0 0 0 0 0 0 0 0 0 0 0
0 0 0 0 0 0 0 0 0 0 0 0 0 1 1 1 3 5 7 9 10 8 6 4 1 0 0 0 0 0 0 0 0 0 0 0 0 0 0 0 0 0 0
0 0 0 0 0 0 0 0 0 0 0 0 0 0 0 0 1 3 4 4 4 4 3 2 1 0 0 0 0 0 0 0 0 0 0 0 0 0 0 0 0 0 0
0 0 0 0 0 0 0 0 0 0 0 0 0 0 0 0 0 1 1 1 1 1 1 1 0 0 0 0 0 0 0 0 0 0 0 0 0 0 0 0 0 0 0
0 0 0 0 0 0 0 0 0 0 0 0 0 0 0 0 0 0 0 0 0 0 0 0 0 0 0 0 0 0 0 0 0 0 0 0 0 0 0 0 0 0 0
0 0 0 0 0 0 0 0 0 0 0 0 0 0 0 0 0 0 0 0 0 0 0 0 0 0 0 0 0 0 0 0 0 0 0 0 0 0 0 0 0 0 0
0 0 0 0 0 0 0 0 0 0 0 0 0 0 0 0 0 0 0 0 0 0 0 0 0 0 0 0 0 0 0 0 0 0 0 0 0 0 0 0 0 0 0
0 0 0 0 0 0 0 0 0 0 0 0 0 0 0 0 0 0 0 0 0 0 0 0 0 0 0 0 0 0 0 0 0 0 0 0 0 0 0 0 0 0 0
0 0 0 0 0 0 0 0 0 0 0 0 0 0 0 0 0 0 0 0 0 0 0 0 0 0 0 0 0 0 0 0 0 0 0 0 0 0 0 0 0 0 0
0 0 0 0 0 0 0 0 0 0 0 0 0 0 0 0 0 0 0 0 0 0 0 0 0 0 0 0 0 0 0 0 0 0 0 0 0 0 0 0 0 0 0
0 0 0 0 0 0 0 0 0 0 0 0 0 0 0 0 0 0 0 0 0 0 0 0 0 0 0 0 0 0 0 0 0 0 0 0 0 0 0 0 0 0 0
0 0 0 0 0 0 0 0 0 0 0 0 0 0 0 0 0 0 0 0 0 0 0 0 0 0 0 0 0 0 0 0 0 0 0 0 0 0 0 0 0 0 0
0 0 0 0 0 0 0 0 0 0 0 0 0 0 0 0 0 0 0 0 0 0 0 0 0 0 0 0 0 0 0 0 0 0 0 0 0 0 0 0 0 0 0
0 0 0 0 0 0 0 0 0 0 0 0 0 0 0 0 0 0 0 0 0 0 0 0 0 0 0 0 0 0 0 0 0 0 0 0 0 0 0 0 0 0 0
0 0 0 0 0 0 0 0 0 0 0 0 0 0 0 0 0 0 0 0 0 0 0 0 0 0 0 0 0 0 0 0 0 0 0 0 0 0 0 0 0 0 0
0 0 0 0 0 0 0 0 0 0 0 0 0 0 0 0 0 0 0 0 0 0 0 0 0 0 0 0 0 0 0 0 0 0 0 0 0 0 0 0 0 0 0
0 0 0 0 0 0 0 0 0 0 0 0 0 0 0 0 0 0 0 0 0 0 0 0 0 0 0 0 0 0 0 0 0 0 0 0 0 0 0 0 0 0 0
0 0 0 0 0 0 0 0 0 0 0 0 0 0 0 0 0 0 0 0 0 0 0 0 0 0 0 0 0 0 0 0 0 0 0 0 0 0 0 0 0 0 0
0 0 0 0 0 0 0 0 0 0 0 0 0 0 0 0 0 0 0 0 0 0 0 0 0 0 0 0 0 0 0 0 0 0 0 0 0 0 0 0 0 0 0
0 0 0 0 0 0 0 0 0 0 0 0 0 0 0 0 0 0 0 0 0 0 0 0 0 0 0 0 0 0 0 0 0 0 0 0 0 0 0 0 0 0 0
Wind_Speed
9 7 7 8 7 7 8 9 9 10 9 7 9 10 11 10 10 10 12 12 12 12 12 8 9 9 9 9 9 5 4 3 3 3 2 1 1 1 2 2 2 2 2
10 8 7 6 7 7 8 8 9 9 9 9 9 7 8 8 10 8 10 12 12 13 12 12 10 10 8 9 9 6 5 3 4 4 3 1 1 1 1 2 3 3 2
10 9 7 6 6 6 7 7 8 9 9 9 6 3 3 2 5 7 9 11 13 13 13 14 12 12 11 11 12 10 10 6 3 3 5 5 5 2 0 0 1 2 2
5 6 6 6 5 5 5 5 6 7 7 7 7 9 9 10 10 10 10 11 13 14 14 13 13 12 11 11 12 10 7 8 5 2 1 1 3 4 2 1 0 1 3
6 6 6 6 5 5 4 4 4 5 6 6 8 10 11 10 7 6 8 9 9 12 13 13 12 12 10 11 11 10 8 6 7 6 4 3 2 1 3 3 2 1 1
8 8 8 7 7 7 6 5 4 4 4 5 7 9 11 10 8 8 9 9 7 8 11 11 11 11 9 10 10 10 10 6 6 5 4 4 4 3 3 3 2 2 1
8 9 10 10 9 9 8 7 6 6 5 5 6 8 10 10 12 11 11 9 7 8 12 11 11 10 9 8 8 8 7 7 7 6 3 3 3 3 3 3 2 1 1
8 8 8 8 8 8 8 8 8 8 7 6 6 6 7 6 7 9 8 9 9 8 8 10 9 9 9 9 8 7 7 6 7 7 6 5 4 3 3 3 4 2 1
8 8 8 8 8 9 8 8 8 8 8 7 6 6 6 6 7 7 6 5 4 4 7 8 8 9 9 10 10 8 8 8 7 7 7 5 4 3 3 3 3 4 2
9 9 8 9 8 8 8 7 7 7 7 7 6 4 4 4 4 3 4 4 5 6 9 9 10 10 10 11 10 10 9 10 8 7 8 6 4 4 3 2 2 2 3
8 8 9 9 9 8 7 7 7 7 7 6 5 4 2 1 1 2 4 5 6 9 10 11 11 12 12 11 11 11 11 11 9 8 7 6 5 3 3 2 2 2 3
7 8 9 9 9 9 8 8 7 7 6 5 4 3 2 2 3 4 5 7 8 9 10 11 12 12 12 12 13 13 11 11 10 8 7 6 4 4 2 2 2 2 4
8 8 9 9 9 9 8 8 7 6 5 4 4 4 4 4 5 6 7 8 10 10 11 11 12 12 12 13 12 12 11 10 9 7 6 5 4 2 2 2 3 3 3
7 8 8 8 8 8 7 7 7 6 5 5 5 6 6 6 7 8 10 10 11 12 12 12 13 13 13 13 13 12 11 10 8 7 5 3 2 2 2 2 4 3 4
7 8 8 8 8 8 7 7 7 7 6 7 7 8 8 9 10 11 12 12 13 13 13 14 13 13 11 11 12 11 10 9 7 6 4 3 2 1 1 2 3 3 3
7 7 8 8 8 7 6 6 7 7 7 8 9 9 11 12 12 12 13 13 13 13 13 13 13 12 10 16 16 12 9 7 6 5 3 2 3 4 5 7 7 6 4
5 6 6 6 6 6 5 6 7 8 9 9 9 10 11 12 12 12 13 13 13 13 13 12 12 12 13 16 15 13 8 6 5 4 3 2 2 4 3 6 9 8 11
4 5 5 5 5 5 5 6 7 8 9 9 10 10 11 12 11 12 12 12 10 11 10 10 10 9 10 13 12 11 7 5 4 3 2 0 2 4 6 4 4 4 5
2 3 3 4 5 6 6 7 8 8 9 9 9 9 10 10 10 11 11 10 10 10 9 8 8 8 7 10 10 9 4 4 3 2 1 2 3 9 11 4 4 5 5
3 4 4 5 6 6 6 8 8 8 8 8 8 8 9 9 10 10 9 8 8 9 8 8 7 6 5 7 8 8 3 3 1 1 2 5 7 10 11 5 4 5 6
4 4 5 5 5 5 6 8 8 7 7 7 8 9 9 9 9 9 8 8 8 9 8 8 7 6 6 7 8 7 2 1 0 1 2 3 10 11 12 10 4 8 9
4 4 5 5 5 5 6 7 7 6 6 8 8 8 8 7 7 8 8 7 7 8 6 6 5 4 5 6 7 7 6 4 0 2 2 4 12 12 13 9 10 13 10
4 4 5 5 5 5 5 7 5 5 7 8 8 8 8 7 7 7 7 6 5 5 4 3 3 3 3 4 8 8 8 8 3 3 8 10 12 11 8 10 12 9 4
4 4 5 5 5 5 5 5 5 5 7 8 7 6 7 7 6 5 5 4 4 4 3 3 2 2 2 2 2 2 3 5 5 3 6 10 10 8 8 8 6 4 4
5 5 5 5 5 5 5 4 5 6 7 7 6 6 6 5 5 5 4 4 2 3 3 2 1 1 1 4 7 4 2 2 3 2 2 3 4 4 4 4 4 4 4
5 5 5 5 5 5 5 4 4 5 7 6 5 4 4 4 4 4 4 8 6 8 7 4 2 1 4 7 8 9 9 10 10 5 2 4 4 5 5 6 6 6 5
Wind_Direction
267 256 243 241 239 235 229 227 222 222 210 200 205 209 214 213 211 213 211 205 202 195 194 191 181 179 183 181 169 146 142 137 142 118 94 31 52 164 187 182 176 182 172
290 281 264 249 236 232 227 226 225 225 215 208 207 207 210 214 215 213 210 207 202 197 195 191 187 186 181 175 174 156 146 146 167 147 136 200 295 257 178 181 187 188 168
293 299 298 277 261 250 237 231 226 227 223 216 205 190 184 195 202 208 212 209 203 199 198 195 189 187 184 186 185 177 162 160 179 187 157 164 211 203 256 221 181 179 173
311 311 315 312 295 274 262 244 237 233 229 215 203 199 205 212 213 212 213 208 203 201 200 195 192 189 189 187 186 182 172 152 162 173 147 128 144 155 182 245 231 194 187
352 351 345 331 325 319 309 287 264 250 242 225 213 209 217 222 218 210 211 208 205 202 199 194 192 190 192 189 181 178 177 169 163 160 153 138 87 115 152 187 211 236 218
7 7 2 0 352 348 346 337 316 287 266 243 230 220 222 221 214 210 211 210 204 201 199 193 192 190 188 186 182 178 177 173 159 154 151 151 154 170 162 162 174 211 268
5 2 359 355 349 344 342 338 330 311 297 267 245 234 230 224 219 216 215 211 206 205 201 192 191 187 182 173 163 163 164 157 150 144 129 118 115 129 133 127 131 158 316
355 351 344 339 333 330 331 330 325 314 308 294 272 255 243 233 229 222 216 212 212 210 195 188 181 172 161 155 149 144 141 134 130 124 118 111 102 104 115 126 133 134 314
343 341 338 335 328 322 317 315 312 310 310 304 291 276 257 240 233 225 216 211 199 170 163 161 154 148 146 143 139 134 129 124 117 117 115 108 100 91 89 105 131 145 200
340 339 337 332 325 315 309 311 309 302 303 306 299 288 275 261 243 213 199 175 154 142 142 141 140 137 135 134 127 124 123 117 113 113 110 103 102 100 99 112 115 136 173
334 333 330 327 323 321 320 320 319 318 319 317 316 311 304 292 183 164 156 145 136 138 140 137 134 132 130 127 123 120 120 116 111 108 110 109 114 115 118 121 139 164 175
335 335 332 333 335 334 333 333 329 329 327 329 341 350 20 72 97 112 121 124 126 127 128 128 126 125 123 121 120 118 116 115 113 110 109 111 114 116 129 150 185 205 206
343 343 343 343 341 340 341 342 341 342 345 6 28 36 48 71 87 100 106 110 113 113 115 117 118 116 114 112 110 110 107 105 104 104 106 110 115 130 158 194 215 227 230
346 346 345 343 342 343 346 348 351 356 11 34 53 59 63 73 83 90 94 99 104 105 106 105 105 105 105 105 105 104 102 99 96 95 99 106 126 175 203 220 231 235 242
349 349 347 342 344 349 355 3 7 10 31 53 61 68 72 77 80 84 88 91 93 96 98 99 97 97 97 102 104 102 102 102 101 96 92 92 97 244 231 241 238 232 240
343 346 349 349 351 353 2 15 24 28 48 63 68 74 79 81 82 85 88 90 91 92 94 94 95 93 96 104 103 104 102 103 104 101 90 81 59 18 353 323 305 287 267
344 351 351 351 355 3 22 40 42 49 58 65 68 74 81 84 85 89 88 89 90 91 90 90 92 95 101 103 104 105 105 106 108 107 90 59 13 1 313 305 306 306 303
351 353 353 2 13 25 43 54 56 60 64 67 70 75 82 85 86 87 87 87 87 87 89 90 92 96 103 106 108 110 105 106 106 104 107 53 305 302 293 269 271 272 279
14 11 18 31 38 44 54 63 62 63 67 69 72 76 83 86 87 87 87 87 89 86 84 86 89 92 96 106 113 114 108 100 91 77 44 317 291 303 314 315 295 290 286
51 46 46 54 56 54 64 72 68 66 67 70 74 76 80 85 86 86 85 82 84 85 83 78 73 76 75 97 103 111 102 94 80 351 311 321 318 314 321 317 302 299 294
73 66 64 61 59 64 75 76 72 69 71 75 76 76 78 81 84 83 82 86 88 85 81 78 66 58 61 68 73 82 101 110 179 291 296 300 322 324 324 326 317 297 305
90 83 79 68 58 66 81 83 75 74 78 80 78 74 72 76 80 83 80 81 88 89 85 83 71 47 36 45 47 39 26 16 0 313 294 299 325 331 330 327 312 314 327
112 102 98 85 68 65 84 92 85 88 89 85 79 76 73 69 72 82 86 80 79 88 88 83 76 51 29 18 26 19 6 356 354 321 328 333 335 336 332 320 321 331 327
130 122 113 103 89 80 85 93 96 92 91 87 81 78 78 73 66 66 75 85 87 89 88 84 75 44 7 337 327 327 334 343 340 339 339 340 338 335 324 323 324 312 293
141 135 128 120 114 108 99 96 99 102 96 89 84 79 78 82 75 68 74 89 98 129 120 122 119 80 331 333 353 354 330 327 315 348 355 340 332 330 323 314 304 299 304
145 138 133 130 126 120 110 105 108 113 111 102 92 89 89 83 80 77 63 66 76 73 73 77 77 354 352 351 353 348 345 343 341 359 341 323 318 313 314 315 315 311 305